Location: Ferques
(50.8300°N, 1.7599°E)
Time: 11:36:26
(UTC+00:00)

Cosmos 1842 Rocket - Pass Details

Date: 19 May 2025
Orbit: 600 x 626 km, 82.5° (Epoch: 11 June)

Event Time Altitude Azimuth Distance (km) Brightness Sun altitude
Exits shadow 23:02:51 34° 208° (SSW) 1,007 4.2 -18.4°
Maximum altitude 23:04:39 69° 282° (WNW) 650 3.7 -18.5°
Drops below altitude 10° 23:08:57 10° 6° (N) 1,956 7.3 -18.6°
Sets 23:11:12 0° 9° (N) 2,865 8.3 -18.7°
